Location: Gila Cliff Dwellings National Monument
(33.2240°N, 108.2417°W)
Time: 21:30:33
(UTC-07:00)

Cosmos 2322 Rocket - Visible Passes

Search period start: 21 February 2017 00:00
Search period end: 03 March 2017 00:00
Orbit: 834 x 849 km, 71.0° (Epoch: 20 February)

Date Brightness Start Highest point End Pass type
(mag) Time Alt. Az. Time Alt. Az. Time Alt. Az.
21 Feb 3.4 19:43:54 10° NW 19:49:09 42° WSW 19:54:24 10° S visible
22 Feb 3.3 19:28:52 10° NW 19:34:10 45° WSW 19:39:29 10° S visible
23 Feb 3.2 19:13:50 10° NNW 19:19:11 48° WSW 19:24:34 10° S visible
24 Feb 3.1 18:58:48 10° NNW 19:04:13 51° WSW 19:09:38 10° S visible
25 Feb 3.1 18:43:47 10° NNW 18:49:14 54° WSW 18:54:41 10° S visible
26 Feb 3.0 18:28:46 10° NNW 18:34:16 58° WSW 18:39:45 10° S visible
